| time (UTC) | temp C | wind direction | speed KPH | gust KPH | rain 1hr cm | rain 24hr cm | rain mn cm | humidity % | barometer mb |
| 20260503010015 | 5 | 0 | 0.0 | 0.0 | 0.00 | 0.00 | 0.00 | 81 | 1018.0 |
| 20260503005008 | 5 | 0 | 0.0 | 0.0 | 0.00 | 0.00 | 0.00 | 80 | 1018.0 |
| 20260503003010 | 6 | 0 | 0.0 | 1.6 | 0.00 | 0.00 | 0.00 | 79 | 1018.0 |
| 20260503002008 | 6 | 0 | 0.0 | 1.6 | 0.00 | 0.00 | 0.00 | 78 | 1018.1 |
| 20260503001008 | 6 | 0 | 0.0 | 1.6 | 0.00 | 0.00 | 0.00 | 78 | 1018.2 |
| 20260502235009 | 6 | 45 | 0.0 | 0.0 | 0.00 | 0.00 | 0.00 | 78 | 1018.4 |
| 20260502234009 | 6 | 45 | 0.0 | 0.0 | 0.00 | 0.00 | 0.00 | 79 | 1018.3 |
| 20260502233010 | 6 | 45 | 0.0 | 0.0 | 0.00 | 0.00 | 0.00 | 78 | 1018.5 |
| 20260502232009 | 6 | 45 | 0.0 | 0.0 | 0.00 | 0.00 | 0.00 | 78 | 1018.5 |
| 20260502231008 | 7 | 45 | 0.0 | 0.0 | 0.00 | 0.00 | 0.00 | 77 | 1018.4 |
| 20260502230014 | 7 | 0 | 0.0 | 1.6 | 0.00 | 0.00 | 0.00 | 74 | 1018.5 |
| 20260502225008 | 7 | 0 | 0.0 | 1.6 | 0.00 | 0.00 | 0.00 | 75 | 1018.6 |
| 20260502223010 | 8 | 0 | 0.0 | 3.2 | 0.00 | 0.00 | 0.00 | 73 | 1018.4 |
| 20260502222006 | 8 | 0 | 1.6 | 3.2 | 0.00 | 0.00 | 0.00 | 73 | 1018.5 |
| 20260502220010 | 8 | 45 | 0.0 | 1.6 | 0.00 | 0.00 | 0.00 | 72 | 1018.5 |
| 20260502215007 | 8 | 45 | 0.0 | 1.6 | 0.00 | 0.00 | 0.00 | 74 | 1018.4 |
| 20260502214008 | 8 | 0 | 0.0 | 1.6 | 0.00 | 0.00 | 0.00 | 73 | 1018.4 |
| 20260502213006 | 8 | 0 | 0.0 | 0.0 | 0.00 | 0.00 | 0.00 | 74 | 1018.5 |
| 20260502212008 | 8 | 0 | 0.0 | 1.6 | 0.00 | 0.00 | 0.00 | 74 | 1018.4 |
| 20260502211009 | 8 | 0 | 1.6 | 4.8 | 0.00 | 0.00 | 0.00 | 73 | 1018.5 |
| 20260502210011 | 8 | 0 | 0.0 | 3.2 | 0.00 | 0.00 | 0.00 | 75 | 1018.5 |
| 20260502205008 | 8 | 270 | 0.0 | 3.2 | 0.00 | 0.00 | 0.00 | 75 | 1018.7 |
| 20260502204006 | 8 | 0 | 0.0 | 0.0 | 0.00 | 0.00 | 0.00 | 76 | 1018.7 |
| 20260502203011 | 8 | 0 | 0.0 | 0.0 | 0.00 | 0.00 | 0.00 | 75 | 1018.6 |
| 20260502202008 | 9 | 0 | 0.0 | 0.0 | 0.00 | 0.00 | 0.00 | 74 | 1018.4 |
| 20260502201009 | 9 | 0 | 0.0 | 1.6 | 0.00 | 0.00 | 0.00 | 74 | 1018.4 |
| 20260502200013 | 10 | 0 | 0.0 | 0.0 | 0.00 | 0.00 | 0.00 | 73 | 1018.4 |
| 20260502195011 | 10 | 0 | 0.0 | 0.0 | 0.00 | 0.00 | 0.00 | 71 | 1018.4 |
| 20260502194006 | 10 | 0 | 0.0 | 0.0 | 0.00 | 0.00 | 0.00 | 70 | 1018.4 |
| 20260502193011 | 11 | 0 | 0.0 | 0.0 | 0.00 | 0.00 | 0.00 | 70 | 1018.3 |
| 20260502192012 | 11 | 0 | 0.0 | 0.0 | 0.00 | 0.00 | 0.00 | 68 | 1018.2 |
| 20260502191006 | 12 | 0 | 0.0 | 1.6 | 0.00 | 0.00 | 0.00 | 67 | 1018.2 |
| 20260502185008 | 12 | 90 | 0.0 | 0.0 | 0.00 | 0.00 | 0.00 | 65 | 1018.1 |
| 20260502184006 | 13 | 90 | 0.0 | 1.6 | 0.00 | 0.00 | 0.00 | 63 | 1018.0 |
| 20260502181010 | 17 | 0 | 1.6 | 3.2 | 0.00 | 0.00 | 0.00 | 50 | 1017.5 |
| 20260502164009 | 23 | 180 | 1.6 | 6.4 | 0.00 | 0.00 | 0.00 | 29 | 1017.1 |
| 20260502163010 | 23 | 180 | 1.6 | 4.8 | 0.00 | 0.00 | 0.00 | 28 | 1017.2 |
| 20260502162008 | 23 | 135 | 3.2 | 8.0 | 0.00 | 0.00 | 0.00 | 29 | 1017.5 |
| 20260502161007 | 24 | 135 | 4.8 | 6.4 | 0.00 | 0.00 | 0.00 | 29 | 1017.5 |
| 20260502152009 | 25 | 180 | 1.6 | 4.8 | 0.00 | 0.00 | 0.00 | 24 | 1018.1 |
| 20260502151009 | 24 | 180 | 6.4 | 9.7 | 0.00 | 0.00 | 0.00 | 26 | 1018.3 |
| 20260502123009 | 23 | 225 | 4.8 | 8.0 | 0.00 | 0.00 | 0.00 | 29 | 1020.4 |
| 20260502122014 | 24 | 135 | 4.8 | 11.3 | 0.00 | 0.00 | 0.00 | 27 | 1020.4 |
| 20260502121008 | 23 | 180 | 6.4 | 12.9 | 0.00 | 0.00 | 0.00 | 24 | 1020.6 |
| 20260502115008 | 23 | 180 | 3.2 | 9.7 | 0.00 | 0.00 | 0.00 | 25 | 1021.0 |
| 20260502114009 | 23 | 180 | 4.8 | 8.0 | 0.00 | 0.00 | 0.00 | 27 | 1021.1 |
| 20260502110012 | 22 | 180 | 4.8 | 9.7 | 0.00 | 0.00 | 0.00 | 33 | 1021.4 |
| 20260502104009 | 22 | 270 | 6.4 | 11.3 | 0.00 | 0.00 | 0.00 | 34 | 1021.7 |
| 20260502103010 | 22 | 270 | 3.2 | 6.4 | 0.00 | 0.00 | 0.00 | 30 | 1022.0 |
| 20260502101009 | 22 | 90 | 3.2 | 8.0 | 0.00 | 0.00 | 0.00 | 33 | 1022.1 |
| 20260502091006 | 20 | 270 | 4.8 | 6.4 | 0.00 | 0.00 | 0.00 | 42 | 1023.0 |
| 20260502071006 | 15 | 135 | 1.6 | 3.2 | 0.00 | 0.00 | 0.00 | 56 | 1024.4 |
| 20260502070012 | 14 | 45 | 1.6 | 4.8 | 0.00 | 0.00 | 0.00 | 60 | 1024.5 |
| 20260502065008 | 13 | 45 | 1.6 | 6.4 | 0.00 | 0.00 | 0.00 | 61 | 1024.6 |
| 20260502064009 | 12 | 225 | 1.6 | 4.8 | 0.00 | 0.00 | 0.00 | 62 | 1024.9 |
| 20260502063010 | 12 | 270 | 0.0 | 3.2 | 0.00 | 0.00 | 0.00 | 64 | 1024.9 |
| 20260502061008 | 10 | 135 | 0.0 | 3.2 | 0.00 | 0.00 | 0.00 | 69 | 1025.0 |
| 20260502060014 | 9 | 270 | 1.6 | 4.8 | 0.00 | 0.00 | 0.00 | 73 | 1025.1 |
| 20260502055008 | 8 | 0 | 0.0 | 1.6 | 0.00 | 0.00 | 0.00 | 73 | 1025.2 |
| 20260502054009 | 7 | 45 | 0.0 | 1.6 | 0.00 | 0.00 | 0.00 | 78 | 1025.4 |
| 20260502053010 | 7 | 135 | 0.0 | 1.6 | 0.00 | 0.00 | 0.00 | 80 | 1025.4 |
| 20260502052008 | 6 | 225 | 0.0 | 0.0 | 0.00 | 0.00 | 0.00 | 83 | 1025.6 |
| 20260502051008 | 5 | 180 | 0.0 | 1.6 | 0.00 | 0.00 | 0.00 | 86 | 1025.7 |
| 20260502050011 | 5 | 180 | 0.0 | 3.2 | 0.00 | 0.00 | 0.00 | 88 | 1025.6 |
| 20260502045009 | 4 | 225 | 0.0 | 1.6 | 0.00 | 0.00 | 0.00 | 90 | 1025.6 |
| 20260502044009 | 3 | 225 | 0.0 | 0.0 | 0.00 | 0.00 | 0.00 | 90 | 1025.5 |
| 20260502043010 | 2 | 225 | 0.0 | 1.6 | 0.00 | 0.00 | 0.00 | 91 | 1025.7 |
| 20260502041009 | 2 | 225 | 0.0 | 1.6 | 0.00 | 0.00 | 0.00 | 92 | 1025.7 |
| 20260502040015 | 2 | 225 | 0.0 | 1.6 | 0.00 | 0.00 | 0.00 | 91 | 1025.7 |
| 20260502035007 | 1 | 225 | 0.0 | 1.6 | 0.00 | 0.00 | 0.00 | 91 | 1025.9 |
| 20260502034009 | 1 | 225 | 0.0 | 3.2 | 0.00 | 0.00 | 0.00 | 91 | 1025.8 |
| 20260502033010 | 1 | 90 | 0.0 | 0.0 | 0.00 | 0.00 | 0.00 | 90 | 1025.8 |
| 20260502032008 | 1 | 90 | 0.0 | 0.0 | 0.00 | 0.00 | 0.00 | 89 | 1025.6 |
| 20260502031008 | 2 | 90 | 0.0 | 0.0 | 0.00 | 0.00 | 0.00 | 88 | 1025.6 |
| 20260502023010 | 2 | 0 | 0.0 | 3.2 | 0.00 | 0.00 | 0.00 | 89 | 1025.7 |
| 20260502022008 | 2 | 45 | 0.0 | 3.2 | 0.00 | 0.00 | 0.00 | 88 | 1025.7 |
| 20260502021009 | 3 | 45 | 0.0 | 1.6 | 0.00 | 0.00 | 0.00 | 88 | 1025.6 |
| 20260502020016 | 3 | 45 | 0.0 | 1.6 | 0.00 | 0.00 | 0.00 | 87 | 1025.7 |
| 20260502014011 | 4 | 0 | 0.0 | 3.2 | 0.00 | 0.00 | 0.00 | 84 | 1025.8 |
| 20260502013010 | 4 | 0 | 0.0 | 3.2 | 0.00 | 0.00 | 0.00 | 84 | 1025.8 |
| 20260502012009 | 4 | 0 | 0.0 | 3.2 | 0.00 | 0.00 | 0.00 | 84 | 1025.8 |